User: anonymous   Login
Location: Unspecified
(0.0000°N, 0.0000°E)
Time: 01:01:09
(UTC+00:00)
Language:

METEOR-M - Orbit

View from above orbital plane
View from above orbital plane
View from above satellite
View from above satellite

Ground track
Ground track

The orbit data is extracted from the following two-line orbital elements,

1 35865U 09049A   19081.86714320  .00000010  00000-0  23155-4 0  9990
2 35865  98.4114  84.0378 0003522  77.9676 282.1897 14.22188222493599
Epoch (UTC): 22 March 2019 20:48:41
Eccentricity: 0.0003522
inclination: 98.4114°
perigee height: 815 km
apogee height: 820 km
right ascension of ascending node: 84.0378°
argument of perigee: 77.9676°
revolutions per day: 14.22188222
mean anomaly at epoch: 282.1897°
orbit number at epoch: 49359

The dashed part of the orbit path shows where the satellite is in the earth's shadow,  

DLR